Regional Weather Roundup
Issued by NWS

Home | Current Version | Previous Version | Text Only | Print | Product List | Glossary On
Versions: 1 2 3 4 5 6 7 8 9 10 11 12 13 14 15 16 17 18 19 20 21 22 23 24 25 26 27 28 29 30 31 32 33 34 35 36 37 38 39 40 41 42 43 44 45 46 47 48 49 50
000
ASUS43 KIND 200809
RWRIN

WEATHER ROUNDUP FOR INDIANA
NATIONAL WEATHER SERVICE INDIANAPOLIS IN
400 AM EDT SUN AUG 20 2017

NOTE: "FAIR" INDICATES FEW OR NO CLOUDS BELOW 12,000 FEET WITH NO
SIGNIFICANT WEATHER AND/OR OBSTRUCTIONS TO VISIBILITY.

* - STATION DOES NOT REPORT WEATHER SUCH AS PRECIPITATION OR FOG.

+ - STATION NOT QUALITY CONTROLLED BY THE NATIONAL WEATHER SERVICE.
    USE DATA WITH CAUTION...ESPECIALLY DEWPOINT AND RELATIVE
    HUMIDITY OBSERVATIONS.

INZ001>003-010>013-019-020-200900-
NORTHWEST INDIANA

CITY           SKY/WX    TMP DP  RH WIND       PRES   REMARKS
GARY /AIRPORT/ CLEAR     65  59  78 SE5       30.02S
KNOX *+        CLEAR     55  55 100 CALM      30.03S
LA PORTE +     CLEAR     56  54  95 CALM      30.04S
MICHIGAN CITY+ CLEAR     55  55 100 CALM      30.03S
MONTICELLO +   CLEAR     63  62  95 CALM      30.01F
RENSSELAER +   CLEAR     63  55  77 E3        30.02S
VALPARAISO     CLEAR     60  58  92 CALM      30.03S

$$

LMZ046-743>745-200900-
SOUTHERN LAKE MICHIGAN

STATION/POSITION TIME  TEMP    WIND        PRES    WAVE
                       AIR SEA DIR/SP/G            HT
                 (UTC) (F)     (DEG/KT/KT) (MB)    (FT)
BURNS HARBOR     0740   71     150/  6/ 10 1016.9S
MICHIGAN CITY    0740   66     130/  8/  9   N/A
5NW MICH CITY    0800   70 74  160/ 10/ 12   N/A     1

$$

INZ004-005-014>016-021>024-200900-
NORTH CENTRAL INDIANA

CITY           SKY/WX    TMP DP  RH WIND       PRES   REMARKS
GOSHEN         CLEAR     57  54  89 CALM      30.04S FOG
LOGANSPORT +   CLEAR     59  59 100 CALM      30.03S
PERU/GRISSOM   CLEAR     64  61  88 SE5       30.02S
ROCHESTER +    CLEAR     61  61 100 CALM      30.04S
SOUTH BEND     CLEAR     57  57 100 CALM      30.04S
WARSAW +       CLEAR     59  59 100 CALM      30.04S

$$

INZ006>009-017-018-025>027-200900-
NORTHEAST INDIANA

CITY           SKY/WX    TMP DP  RH WIND       PRES   REMARKS
AUBURN +       CLEAR     59  57  94 CALM      30.05S
FORT WAYNE     CLEAR     60  58  92 CALM      30.04S
HUNTINGTON +   CLEAR     59  58  96 CALM      30.03F FOG

$$

INZ028-029-035-036-043>045-051>053-200900-
WEST CENTRAL INDIANA

CITY           SKY/WX    TMP DP  RH WIND       PRES   REMARKS
GREENCASTLE +  CLEAR     64  61  88 CALM      30.02F
LAFAYETTE      CLEAR     65  62  90 CALM      30.01S
TERRE HAUTE    CLEAR     64  62  93 CALM      30.00F

$$

INZ030>032-037>040-046>048-054>057-064-065-200900-
CENTRAL INDIANA

CITY           SKY/WX    TMP DP  RH WIND       PRES   REMARKS
CP ATTERBURY + MOCLDY    64  63  94 CALM      30.02S
FISHERS *+     CLEAR     64  63  94 CALM      30.03
FRANKFORT +    PTCLDY    65  62  91 SE3       30.04S
GREENWOOD *+   PTCLDY    68  62  79 E3        30.03S
INDIANAPOLIS   PTCLDY    72  62  71 E7        30.01S
-EAGLE CREEK   PTCLDY    70  61  73 MISG      30.02S
KOKOMO +       CLEAR     62  60  93 CALM      30.04S
MT COMFORT *+  CLEAR     63  61  94 CALM      30.03F
SHELBYVILLE    MOCLDY    67  62  84 CALM      30.01S
ZIONSVILLE +   CLEAR     61  60  95 CALM      30.04S

$$

INZ033-034-041-042-049-050-058-059-200900-
EAST CENTRAL INDIANA

CITY           SKY/WX    TMP DP  RH WIND       PRES   REMARKS
MUNCIE         PTCLDY    67  62  84 E3        30.04S
RICHMOND +     CLEAR     63  61  94 E6        30.05S

$$

INZ060-061-067>069-081>083-085>088-200900-
SOUTHWEST INDIANA

CITY           SKY/WX    TMP DP  RH WIND       PRES   REMARKS
EVANSVILLE     CLEAR     69  67  93 CALM      30.00R
HUNTINGBURG +  CLEAR     67  66  97 SE5       30.00F FOG
WASHINGTON +   CLEAR     67  66  94 MISG      29.99F

$$

INZ062-063-066-070>080-084-089>092-200900-
SOUTH CENTRAL AND SOUTHEAST INDIANA

CITY           SKY/WX    TMP DP  RH WIND       PRES   REMARKS
BEDFORD +      CLEAR     68  66  94 CALM      30.01S
BLOOMINGTON    CLEAR     67  64  90 CALM      30.01F
MADISON *+     CLEAR     66  64  94 CALM      30.05R
NORTH VERNON + PTCLDY    66  66 100 CALM      30.03R

$$





USA.gov is the U.S. government's official web portal to all federal, state and local government web resources and services.